INTELSAT 33E DEB, 62003

Orbit data source: Space-Track

INTELSAT 33E DEB, 62003 is space debris in GEO originally from a launch on Wed, 24 Aug 2016 UTC launched from the French Guiana (FRGUI). Debris objects in space refer to the collection of defunct objects orbiting the Earth. Examples of debris include non-operational satellites, rocket bodies, and fragments generated from explosions, collisions, or faulty payload assembly.

Not visible in the next 10 days
Identifier
62003, 2016-053V
Orbit
GEO
Country
Flag of USUS / ITSO
Related business
Manufacturer
Boeing/ES
Mission
Spacecraft
Bus & Motor
Unknown
Mass
Unknown
Launch date (UTC)
2016-08-24 (10 years ago)
Launch vehicle
Unknown
Launch site
French Guiana (FRGUI)
Object type
Payload
Rocket body
Debris
Shape & HBR
Unknown shape, 1.1 m
Radar Cross Section
RCS unknown

Expand to show TLE details & history
Last TLE update: 1 day ago

TLE from 1 day ago
0 INTELSAT 33E DEB
1 62003U 16053V   26256.98463971 -.00000332  00000-0  00000-0 0  9993
2 62003   1.8487  86.0019 0009526 208.9118 151.7980  1.00447419  6979
Epoch: 2026-09-13T23:37Z
TLE epoch observation values (Epoch: 2026-09-13T23:37:52.870Z)
Latitude
-0.00001°
Longitude
99.31442°
Altitude
35,772.119 km
Speed
3.074 km/s
True Right ascension
05h 47m 01s
True Declination
0° 00' 00"
Sunlit
Object was in daylight at epoch
Visualization orbit readout
Latitude
Unknown
Longitude
Unknown
Altitude
Unknown
Speed
Unknown
Apparent Right ascension
Unknown
Apparent Declination
Unknown
Sunlit
N/A
Visualization observer readout
Local Sidereal Time
01:45:34
Azimuth
Unknown
Elevation
Unknown
Doppler factor
Unknown
Orbital elements
Apogee altitude
35,778.62 km
Perigee altitude
35,698.38 km
Semi-major axis
42,116.637 km
Eccentricity
0.00095
Inclination
1.8487°
RAAN
86.0019°
Arg. of periapsis
208.9118°
True anomaly
151.84953°
Mean anomaly
151.798°
Eccentric anomaly
151.82377°
Mean motion
0.25111 °/min
Orbital period
1,433.64 mins
BSTAR
0
Loading maneuver chart data...
Computing Atmospheric mass density...
Loading historical data...
Loading historical data...
Loading historical data...
Loading historical data...
Loading historical data...
Loading historical data...
Loading historical data...

Documentation

Showing up to 5 results
|